39P/Oterma (2023)

Japanese version
Home page
Updated on August 19, 2019

---------------------------------------------------------------------

* Profile

* Orbital Elements

Epoch 2023 June 25.0 TT = JDT 2460120.5                                         
T 2023 July 11.61479 TT                                 Williams                
q   5.7072006            (2000.0)            P               Q                  
n   0.05071490     Peri.  103.04359     +0.77632189     -0.62986949             
a   7.2284578      Node   296.00236     +0.56735731     +0.71501095             
e   0.2104539      Incl.    1.54699     +0.27464524     +0.30335420             
P  19.4                                                                         
From 92 observations 1949-2019, mean residual 0".6.                             

* Magnitudes Graph

        m1 = 11.0 + 5 log d + 10.0 log r

---------------------------------------------------------------------

The orbital elements are published on M.P.E.C. 2019-Q09.
The magnitudes graphs are made with Comet for Windows.

---------------------------------------------------------------------

Copyright(C) Seiichi Yoshida (comet@aerith.net). All rights reserved.